Satellite: NOAA-11 Catalog number: 19531 Epoch time: 13255.35004943 Element set: 507 Inclination: 098.7066 deg RA of node: 336.3091 deg Eccentricity: 0.0011202 Arg of perigee: 018.5735 deg Mean anomaly: 023.3144 deg Mean motion: 14.15027249 rev/day Decay rate: 2.7e-07 rev/day^2 Epoch rev: 28845 Checksum: 272
Satellite: NOAA-12 Catalog number: 21263 Epoch time: 13255.51292640 Element set: 971 Inclination: 098.6928 deg RA of node: 280.1874 deg Eccentricity: 0.0013012 Arg of perigee: 329.4297 deg Mean anomaly: 189.4462 deg Mean motion: 14.25584906 rev/day Decay rate: 4.1e-07 rev/day^2 Epoch rev: 16099 Checksum: 313
Satellite: MET-3/5 Catalog number: 21655 Epoch time: 13255.46053535 Element set: 782 Inclination: 082.5591 deg RA of node: 192.6317 deg Eccentricity: 0.0011995 Arg of perigee: 271.6986 deg Mean anomaly: 088.2763 deg Mean motion: 13.17047409 rev/day Decay rate: 2.29e-06 rev/day^2 Epoch rev: 6142 Checksum: 320
Satellite: MET-2/21 Catalog number: 22782 Epoch time: 13254.84267846 Element set: 841 Inclination: 082.5508 deg RA of node: 034.1534 deg Eccentricity: 0.0021387 Arg of perigee: 328.4234 deg Mean anomaly: 195.9357 deg Mean motion: 13.83711938 rev/day Decay rate: 4.8e-07 rev/day^2 Epoch rev: 1162 Checksum: 310
Satellite: OKEAN-4 Catalog number: 23317 Epoch time: 13255.48290007 Element set: 321 Inclination: 082.5409 deg RA of node: 328.0839 deg Eccentricity: 0.0019481 Arg of perigee: 298.5711 deg Mean anomaly: 138.9284 deg Mean motion: 14.84625667 rev/day Decay rate: 6.17e-06 rev/day^2 Epoch rev: 2189 Checksum: 317
Satellite: NOAA-14 Catalog number: 23455 Epoch time: 13255.32181692 Element set: 450 Inclination: 098.7994 deg RA of node: 338.4253 deg Eccentricity: 0.0010585 Arg of perigee: 110.1228 deg Mean anomaly: 291.6783 deg Mean motion: 14.13920603 rev/day Decay rate: -7.6e-07 rev/day^2 Epoch rev: 96468 Checksum: 312
Satellite: NOAA-15 Catalog number: 25338 Epoch time: 13255.49976580 Element set: 871 Inclination: 098.7324 deg RA of node: 245.2633 deg Eccentricity: 0.0009863 Arg of perigee: 229.7242 deg Mean anomaly: 291.0592 deg Mean motion: 14.25263554 rev/day Decay rate: 1.16e-06 rev/day^2 Epoch rev: 79728 Checksum: 335
Satellite: RESURS Catalog number: 25394 Epoch time: 13254.83530346 Element set: 467 Inclination: 098.3725 deg RA of node: 226.5630 deg Eccentricity: 0.0001670 Arg of perigee: 046.2467 deg Mean anomaly: 012.4384 deg Mean motion: 14.24335181 rev/day Decay rate: -6.0e-08 rev/day^2 Epoch rev: 78869 Checksum: 298
Satellite: FENGYUN1 Catalog number: 25730 Epoch time: 13255.84375819 Element set: 962 Inclination: 098.8861 deg RA of node: 214.3125 deg Eccentricity: 0.0025590 Arg of perigee: 160.2308 deg Mean anomaly: 229.1837 deg Mean motion: 14.10642184 rev/day Decay rate: 8.69e-06 rev/day^2 Epoch rev: 73840 Checksum: 312
Satellite: OKEAN-0 Catalog number: 25860 Epoch time: 13255.84150490 Element set: 45 Inclination: 098.0012 deg RA of node: 217.1680 deg Eccentricity: 0.0001189 Arg of perigee: 132.8561 deg Mean anomaly: 257.2068 deg Mean motion: 14.74691911 rev/day Decay rate: 2.86e-06 rev/day^2 Epoch rev: 76127 Checksum: 289
Satellite: NOAA-16 Catalog number: 26536 Epoch time: 13255.45422707 Element set: 359 Inclination: 099.0335 deg RA of node: 309.0447 deg Eccentricity: 0.0009793 Arg of perigee: 246.0279 deg Mean anomaly: 241.8370 deg Mean motion: 14.12915029 rev/day Decay rate: 1.21e-06 rev/day^2 Epoch rev: 66889 Checksum: 317
Satellite: NOAA-17 Catalog number: 27453 Epoch time: 13255.46220861 Element set: 268 Inclination: 098.3131 deg RA of node: 264.9171 deg Eccentricity: 0.0010504 Arg of perigee: 268.1445 deg Mean anomaly: 264.1043 deg Mean motion: 14.24617206 rev/day Decay rate: 1.12e-06 rev/day^2 Epoch rev: 58314 Checksum: 273
Satellite: NOAA-18 Catalog number: 28654 Epoch time: 13255.46673325 Element set: 754 Inclination: 099.1106 deg RA of node: 224.9829 deg Eccentricity: 0.0013635 Arg of perigee: 327.3733 deg Mean anomaly: 140.6059 deg Mean motion: 14.11860975 rev/day Decay rate: 2.13e-06 rev/day^2 Epoch rev: 42837 Checksum: 317
Satellite: NOAA-19 Catalog number: 33591 Epoch time: 13255.49660042 Element set: 934 Inclination: 098.9096 deg RA of node: 196.8972 deg Eccentricity: 0.0014126 Arg of perigee: 179.0013 deg Mean anomaly: 243.8648 deg Mean motion: 14.11549104 rev/day Decay rate: 6.0e-08 rev/day^2 Epoch rev: 23681 Checksum: 315
/EX SB KEPS @ AMSAT $ORB13255.M Orbital Elements 13255.MISC
HR AMSAT ORBITAL ELEMENTS FOR MANNED AND MISCELLANEOUS SATELLITES FROM WA5QGD FORT WORTH,TX September 12, 2013 BID: ORB13255.M TO ALL RADIO AMATEURS BT
Satellite: HUBBLE Catalog number: 20580 Epoch time: 13255.80453941 Element set: 330 Inclination: 028.4706 deg RA of node: 058.3235 deg Eccentricity: 0.0002842 Arg of perigee: 203.6773 deg Mean anomaly: 256.1443 deg Mean motion: 15.03914491 rev/day Decay rate: 1.296e-05 rev/day^2 Epoch rev: 8289 Checksum: 283
Satellite: ISS Catalog number: 25544 Epoch time: 13255.86496530 Element set: 581 Inclination: 051.6510 deg RA of node: 033.8567 deg Eccentricity: 0.0004029 Arg of perigee: 057.7325 deg Mean anomaly: 078.3345 deg Mean motion: 15.50531591 rev/day Decay rate: 6.562e-05 rev/day^2 Epoch rev: 84830 Checksum: 300
Satellite: CO-58 Catalog number: 28895 Epoch time: 13255.04993072 Element set: 570 Inclination: 097.8593 deg RA of node: 106.0934 deg Eccentricity: 0.0018166 Arg of perigee: 164.0791 deg Mean anomaly: 196.0985 deg Mean motion: 14.61223612 rev/day Decay rate: 3.80e-06 rev/day^2 Epoch rev: 41962 Checksum: 330
Satellite: FALCON Catalog number: 30776 Epoch time: 13255.49313946 Element set: 695 Inclination: 035.4314 deg RA of node: 026.0688 deg Eccentricity: 0.0001421 Arg of perigee: 330.2528 deg Mean anomaly: 108.7945 deg Mean motion: 15.11370477 rev/day Decay rate: 4.522e-05 rev/day^2 Epoch rev: 35863 Checksum: 295
Satellite: MAST Catalog number: 31126 Epoch time: 13255.78434313 Element set: 851 Inclination: 097.8884 deg RA of node: 246.7416 deg Eccentricity: 0.0094375 Arg of perigee: 139.0596 deg Mean anomaly: 301.6186 deg Mean motion: 14.54664375 rev/day Decay rate: 2.90e-06 rev/day^2 Epoch rev: 34005 Checksum: 313
Satellite: CAPE1 Catalog number: 31130 Epoch time: 13254.71265853 Element set: 852 Inclination: 097.9063 deg RA of node: 242.1237 deg Eccentricity: 0.0101274 Arg of perigee: 158.4334 deg Mean anomaly: 202.1176 deg Mean motion: 14.53608723 rev/day Decay rate: 4.07e-06 rev/day^2 Epoch rev: 33934 Checksum: 274
Satellite: COMPASS Catalog number: 32787 Epoch time: 13255.15374741 Element set: 727 Inclination: 097.7437 deg RA of node: 311.4396 deg Eccentricity: 0.0014623 Arg of perigee: 024.1287 deg Mean anomaly: 336.0611 deg Mean motion: 14.85840832 rev/day Decay rate: 1.504e-05 rev/day^2 Epoch rev: 29087 Checksum: 302
Satellite: AAUSAT2 Catalog number: 32788 Epoch time: 13255.13448032 Element set: 709 Inclination: 097.7446 deg RA of node: 312.1221 deg Eccentricity: 0.0014105 Arg of perigee: 023.5223 deg Mean anomaly: 336.6635 deg Mean motion: 14.86329423 rev/day Decay rate: 1.847e-05 rev/day^2 Epoch rev: 29091 Checksum: 287
Satellite: DO-64 Catalog number: 32789 Epoch time: 13255.75175762 Element set: 741 Inclination: 097.7609 deg RA of node: 317.0353 deg Eccentricity: 0.0013307 Arg of perigee: 013.6798 deg Mean anomaly: 082.0439 deg Mean motion: 14.89215577 rev/day Decay rate: 2.540e-05 rev/day^2 Epoch rev: 29115 Checksum: 328
Satellite: CO-66 Catalog number: 32791 Epoch time: 13255.78906271 Element set: 705 Inclination: 097.7436 deg RA of node: 311.3025 deg Eccentricity: 0.0015130 Arg of perigee: 023.5151 deg Mean anomaly: 042.2254 deg Mean motion: 14.84915867 rev/day Decay rate: 1.022e-05 rev/day^2 Epoch rev: 29087 Checksum: 292
Satellite: RS-30 Catalog number: 32953 Epoch time: 13255.79198082 Element set: 209 Inclination: 082.5061 deg RA of node: 013.7053 deg Eccentricity: 0.0019134 Arg of perigee: 044.3450 deg Mean anomaly: 315.9160 deg Mean motion: 12.43036938 rev/day Decay rate: 1.0e-07 rev/day^2 Epoch rev: 24079 Checksum: 273
Satellite: METEOR-M Catalog number: 35865 Epoch time: 13255.76460796 Element set: 802 Inclination: 098.5939 deg RA of node: 305.9989 deg Eccentricity: 0.0002322 Arg of perigee: 156.1366 deg Mean anomaly: 203.9919 deg Mean motion: 14.21892201 rev/day Decay rate: -3.5e-07 rev/day^2 Epoch rev: 20691 Checksum: 322
Satellite: RS-38 Catalog number: 35869 Epoch time: 13255.78265086 Element set: 755 Inclination: 098.5845 deg RA of node: 305.9045 deg Eccentricity: 0.0004674 Arg of perigee: 164.8435 deg Mean anomaly: 195.2870 deg Mean motion: 14.22143754 rev/day Decay rate: 1.0e-07 rev/day^2 Epoch rev: 20694 Checksum: 332
Satellite: JUGNU Catalog number: 37839 Epoch time: 13255.08679056 Element set: 461 Inclination: 019.9611 deg RA of node: 140.2334 deg Eccentricity: 0.0019087 Arg of perigee: 160.4561 deg Mean anomaly: 349.9494 deg Mean motion: 14.12179382 rev/day Decay rate: 3.80e-06 rev/day^2 Epoch rev: 9919 Checksum: 318
Satellite: SRMSAT Catalog number: 37841 Epoch time: 13254.82180198 Element set: 461 Inclination: 019.9714 deg RA of node: 155.6101 deg Eccentricity: 0.0012015 Arg of perigee: 107.7176 deg Mean anomaly: 311.5821 deg Mean motion: 14.10245954 rev/day Decay rate: 3.59e-06 rev/day^2 Epoch rev: 9901 Checksum: 275
Satellite: RAX-2 Catalog number: 37853 Epoch time: 13255.68395892 Element set: 592 Inclination: 101.6994 deg RA of node: 149.8780 deg Eccentricity: 0.0233144 Arg of perigee: 136.4254 deg Mean anomaly: 279.9649 deg Mean motion: 14.84234756 rev/day Decay rate: 2.639e-05 rev/day^2 Epoch rev: 10142 Checksum: 346
